EW5239 Weather Reports


Display with metric or nautical units.
time (UTC)temp
F
wind
direction
speed
MPH
gust
MPH
rain 1hr
in
rain 24hr
in
rain mn
in
humidity
%
barometer
mb
20260904070508 65 258 9.0 13.0 0.00 0.00 0.00 85 1011.4
20260904070453 65 264 10.0 14.0 0.00 0.04 0.00 85 1013.4
20260904065958 65 252 8.0 14.0 0.00 0.04 0.00 85 1013.3
20260904065508 65 262 8.0 15.0 0.00 0.00 0.00 86 1011.3
20260904065453 64 258 8.0 15.0 0.00 0.04 0.00 85 1013.3
20260904065008 65 271 9.0 15.0 0.00 0.00 0.00 86 1011.6
20260904064952 64 253 9.0 15.0 0.00 0.04 0.00 86 1013.5
20260904064507 64 249 9.0 15.0 0.00 0.00 0.00 86 1011.6
20260904064453 64 264 8.0 15.0 0.00 0.04 0.00 86 1013.6
20260904064008 64 245 9.0 13.0 0.00 0.00 0.00 86 1011.6
20260904063953 64 263 9.0 14.0 0.00 0.04 0.00 86 1013.5
20260904063453 64 254 10.0 14.0 0.00 0.04 0.00 86 1013.6
20260904063008 64 284 11.0 15.0 0.00 0.00 0.00 86 1011.9
20260904062953 64 266 11.0 14.0 0.00 0.04 0.00 86 1013.7
20260904062508 64 269 10.0 15.0 0.00 0.00 0.00 86 1011.7
20260904062452 63 257 9.0 14.0 0.00 0.04 0.00 86 1013.5
20260904062007 63 256 8.0 10.0 0.00 0.00 0.00 86 1011.5
20260904061952 63 247 9.0 11.0 0.00 0.04 0.00 86 1013.5
20260904061453 63 253 9.0 12.0 0.00 0.04 0.00 86 1013.6
20260904061008 63 298 9.0 12.0 0.00 0.00 0.00 86 1011.6
20260904060953 63 247 9.0 12.0 0.00 0.04 0.00 86 1013.2
20260904060507 63 290 8.0 9.0 0.00 0.00 0.00 86 1011.3
20260904060008 63 244 7.0 10.0 0.00 0.00 0.00 86 1011.2
20260904055958 63 256 7.0 10.0 0.00 0.04 0.00 86 1013.3
20260904055452 63 283 8.0 10.0 0.00 0.04 0.00 87 1013.5
20260904055008 63 278 7.0 8.0 0.00 0.00 0.00 86 1011.5
20260904054508 63 242 6.0 8.0 0.00 0.00 0.00 87 1011.4
20260904054453 63 275 6.0 8.0 0.00 0.04 0.00 87 1013.4
20260904054008 62 226 6.0 8.0 0.00 0.00 0.00 88 1011.3
20260904053953 62 246 6.0 8.0 0.00 0.04 0.00 88 1013.4
20260904053507 62 254 6.0 9.0 0.00 0.00 0.00 88 1011.4
20260904053453 62 232 6.0 8.0 0.00 0.04 0.00 88 1013.5
20260904052508 62 233 6.0 10.0 0.00 0.00 0.00 88 1011.5
20260904052453 62 256 6.0 10.0 0.00 0.04 0.00 89 1013.3
20260904052007 62 246 6.0 11.0 0.00 0.00 0.00 88 1011.4
20260904051953 62 289 6.0 10.0 0.00 0.04 0.00 89 1013.4
20260904051508 62 256 8.0 11.0 0.00 0.00 0.00 88 1011.4
20260904051453 62 280 8.0 10.0 0.00 0.04 0.00 89 1013.5
20260904051008 62 256 8.0 9.0 0.00 0.00 0.00 89 1011.5
20260904050953 62 240 7.0 10.0 0.00 0.04 0.00 89 1013.5
20260904050507 62 243 7.0 9.0 0.00 0.00 0.00 89 1011.6
20260904050453 62 229 7.0 9.0 0.00 0.04 0.00 90 1013.5
20260904050008 62 240 7.0 9.0 0.00 0.00 0.00 89 1011.7
20260904045959 62 243 7.0 9.0 0.00 0.04 0.00 90 1013.7
20260904045453 62 249 7.0 11.0 0.00 0.04 0.00 90 1013.6
20260904044953 62 261 7.0 11.0 0.00 0.04 0.00 90 1013.5
20260904044453 62 262 7.0 10.0 0.00 0.04 0.00 90 1013.6
20260904044007 62 290 8.0 11.0 0.00 0.00 0.00 89 1011.6
20260904043953 62 282 8.0 11.0 0.00 0.04 0.00 90 1013.3
20260904043508 62 270 8.0 11.0 0.00 0.00 0.00 89 1011.8
20260904043453 62 320 8.0 11.0 0.00 0.04 0.00 90 1013.7
20260904043008 62 253 7.0 8.0 0.00 0.00 0.00 89 1011.8
20260904042952 62 286 7.0 8.0 0.00 0.04 0.00 90 1014.0
20260904042507 62 248 8.0 11.0 0.00 0.00 0.00 89 1011.8
20260904042453 62 268 8.0 11.0 0.00 0.04 0.00 90 1014.0
20260904042008 62 258 8.0 11.0 0.00 0.00 0.00 89 1011.6
20260904041953 62 280 8.0 11.0 0.00 0.04 0.00 90 1013.6
20260904041508 62 306 8.0 11.0 0.00 0.00 0.00 89 1011.8
20260904041453 62 279 7.0 10.0 0.00 0.04 0.00 90 1013.9
20260904040953 62 271 7.0 9.0 0.00 0.04 0.00 90 1013.5
20260904040508 62 346 7.0 9.0 0.00 0.00 0.00 88 1011.8
20260904040453 62 260 7.0 9.0 0.00 0.04 0.00 90 1013.9
20260904040008 62 267 8.0 9.0 0.00 0.00 0.00 88 1011.7
20260904035959 62 270 7.0 9.0 0.00 0.04 0.00 89 1013.6
20260904035452 62 278 7.0 9.0 0.00 0.04 0.00 88 1013.7
20260904035008 62 277 8.0 11.0 0.00 0.00 0.00 87 1011.7
20260904034953 62 261 8.0 11.0 0.00 0.04 0.00 88 1013.7
20260904034508 62 288 8.0 11.0 0.00 0.00 0.00 86 1011.7
20260904034007 62 278 8.0 10.0 0.00 0.00 0.00 85 1011.7
20260904033953 63 261 8.0 11.0 0.00 0.04 0.00 84 1013.6
20260904033507 63 270 8.0 10.0 0.00 0.00 0.00 83 1011.7
20260904033453 63 253 8.0 11.0 0.00 0.04 0.00 84 1013.6
20260904033008 63 273 7.0 10.0 0.00 0.00 0.00 83 1011.5
20260904032953 63 248 7.0 10.0 0.00 0.04 0.00 83 1013.5
20260904032507 63 255 7.0 10.0 0.00 0.00 0.00 83 1011.5
20260904032453 63 255 7.0 10.0 0.00 0.04 0.00 83 1013.5